Change the Weather History Date:

Saturday, July 13, 2013

  Actual Average Record
Temperature  
Mean Temperature 80 °F -  
Max Temperature 87 °F 93 °F 111 °F (2000)
Min Temperature 74 °F 72 °F 68 °F (1996)
Cooling Degree Days 16    
Growing Degree Days 30 (Base 50)    
Moisture  
Dew Point 74 °F    
Average Humidity 78    
Maximum Humidity 89    
Minimum Humidity 62    
Precipitation  
Precipitation 0.00 in 0.01 in - ()
Sea Level Pressure  
Sea Level Pressure 29.70 in    
Wind  
Wind Speed 4 mph ()    
Max Wind Speed 18 mph    
Max Gust Speed -    
Visibility 6.1 miles    
Events      
Averages and records for this station are not official NWS values.
T = Trace of Precipitation, MM = Missing Value Source: Averaged Metar Reports

Daily Weather History Graph

Daily Weather History Graph

Search for Another Location

Airport or City:

Trip Planner

Search our weather history database for the weather conditions in past years. The results will help you decide how hot, cold, wet, or windy it might be!

Date:

Astronomy

Jul. 13, 2013 Rise Set
Actual Time 5:47 AM EEST 8:16 PM EEST
Civil Twilight 5:17 AM EEST 8:46 PM EEST
Nautical Twilight 4:40 AM EEST 9:24 PM EEST
Astronomical Twilight 3:59 AM EEST 10:05 PM EEST
Moon 10:35 AM EEST (7/13) 10:56 PM EEST (7/13)
Length of Visible Light 15h 29m
Length of Day
14h 29m
Waxing Crescent, 23% of the Moon is Illuminated
Jul 13
Waxing Crescent
Jul 16
First Quarter
Jul 22
Full
Jul 29
Last Quarter
Aug 7
New

Hourly Weather History & Observations

Time (EEST) Temp. Heat Index Dew Point Humidity Pressure Visibility Wind Dir Wind Speed Gust Speed Precip Events Conditions
12:00 AM 79 °F - 74 °F 81% 29.70 in 6 mi Calm Calm - -  
12:20 AM 78.8 °F - 75.2 °F 89% 29.71 in - Variable 1.2 mph - N/A   Clear
12:50 AM 77.0 °F - 73.4 °F 89% 29.71 in - South 2.3 mph - N/A   Clear
1:20 AM 78.8 °F - 73.4 °F 83% 29.71 in - Variable 1.2 mph - N/A   Clear
1:50 AM 78.8 °F - 75.2 °F 89% 29.71 in - Variable 1.2 mph - N/A   Clear
2:20 AM 77.0 °F - 73.4 °F 89% 29.71 in - Variable 1.2 mph - N/A   Clear
2:50 AM 78.8 °F - 75.2 °F 89% 29.68 in - Variable 2.3 mph - N/A   Clear
3:00 AM 78 °F - 75 °F 87% 29.68 in 6 mi West 2.3 mph - -  
3:20 AM 77.0 °F - 73.4 °F 89% 29.68 in - Calm Calm - N/A   Clear
3:50 AM 77.0 °F - 73.4 °F 89% 29.68 in - Calm Calm - N/A   Clear
4:20 AM 77.0 °F - 71.6 °F 83% 29.68 in - North 2.3 mph - N/A   Clear
4:50 AM 77.0 °F - 71.6 °F 83% 29.68 in - North 3.5 mph - N/A   Clear
5:20 AM 75.2 °F - 71.6 °F 89% 29.68 in - North 4.6 mph - N/A   Clear
5:50 AM 75.2 °F - 69.8 °F 83% 29.68 in - Variable 1.2 mph - N/A   Clear
6:00 AM 74 °F - 70 °F 85% 29.68 in 6 mi East 1.2 mph - -  
6:20 AM 75.2 °F - 71.6 °F 89% 29.68 in - Calm Calm - N/A   Clear
6:50 AM 75.2 °F - 71.6 °F 89% 29.71 in - Variable 1.2 mph - N/A   Clear
7:20 AM 80.6 °F 84.6 °F 71.6 °F 74% 29.71 in - Variable 1.2 mph - N/A   Clear
7:50 AM 80.6 °F 86.2 °F 75.2 °F 84% 29.71 in - South 3.5 mph - N/A   Clear
8:20 AM 82.4 °F 89.5 °F 75.2 °F 79% 29.71 in 6.2 mi SSE 4.6 mph - N/A   Partly Cloudy
8:50 AM 82.4 °F 90.9 °F 77.0 °F 84% 29.71 in 6.2 mi SSE 5.8 mph - N/A   Scattered Clouds
9:00 AM 82 °F - 76 °F 77% 29.70 in 6 mi SSE 5.8 mph - -   Partly Cloudy
9:20 AM 84.2 °F 94.1 °F 77.0 °F 79% 29.71 in 5.0 mi SSE 6.9 mph - N/A   Scattered Clouds
9:50 AM 84.2 °F 92.3 °F 75.2 °F 74% 29.71 in 6.2 mi SSE 6.9 mph - N/A   Scattered Clouds
10:20 AM 84.2 °F 92.3 °F 75.2 °F 74% 29.71 in 6.2 mi SSE 8.1 mph - N/A   Scattered Clouds
10:50 AM 86.0 °F 93.4 °F 73.4 °F 66% 29.74 in 6.2 mi SSE 8.1 mph - N/A   Scattered Clouds
11:20 AM 84.2 °F 92.3 °F 75.2 °F 74% 29.74 in 6.2 mi SSE 6.9 mph - N/A   Scattered Clouds
11:50 AM 86.0 °F 95.1 °F 75.2 °F 70% 29.74 in 6.2 mi SSE 9.2 mph - N/A   Scattered Clouds
12:00 PM 85 °F - 75 °F 64% 29.72 in 6 mi SSE 17.9 mph - -   Partly Cloudy
12:20 PM 86.0 °F 95.1 °F 75.2 °F 70% 29.74 in 6.2 mi SSE 8.1 mph - N/A   Scattered Clouds
12:50 PM 86.0 °F 95.1 °F 75.2 °F 70% 29.74 in 6.2 mi SSE 9.2 mph - N/A   Scattered Clouds
1:20 PM 87.8 °F 97.6 °F 75.2 °F 66% 29.74 in 6.2 mi SSE 8.1 mph - N/A   Scattered Clouds
1:50 PM 86.0 °F 95.1 °F 75.2 °F 70% 29.71 in 6.2 mi SSE 9.2 mph - N/A   Scattered Clouds
2:20 PM 86.0 °F 95.1 °F 75.2 °F 70% 29.71 in 6.2 mi SSE 9.2 mph - N/A   Scattered Clouds
2:50 PM 86.0 °F 95.1 °F 75.2 °F 70% 29.71 in 6.2 mi SSE 10.4 mph - N/A   Scattered Clouds
3:00 PM 86 °F - 75 °F 62% 29.70 in 6 mi SSE 10.4 mph - -   Partly Cloudy
3:20 PM 86.0 °F 95.1 °F 75.2 °F 70% 29.71 in 6.2 mi SSE 9.2 mph - N/A   Scattered Clouds
3:50 PM 86.0 °F 93.4 °F 73.4 °F 66% 29.71 in 6.2 mi South 10.4 mph - N/A   Scattered Clouds
4:20 PM 86.0 °F 95.1 °F 75.2 °F 70% 29.71 in 6.2 mi SSE 8.1 mph - N/A   Scattered Clouds
4:50 PM 86.0 °F 95.1 °F 75.2 °F 70% 29.71 in 6.2 mi South 8.1 mph - N/A   Scattered Clouds
5:20 PM 84.2 °F 92.3 °F 75.2 °F 74% 29.68 in 6.2 mi SSE 6.9 mph - N/A   Scattered Clouds
5:50 PM 84.2 °F 92.3 °F 75.2 °F 74% 29.68 in 6.2 mi SSE 5.8 mph - N/A   Scattered Clouds
6:00 PM 85 °F - 75 °F 65% 29.68 in 6 mi SSE 11.2 mph - -   Partly Cloudy
6:20 PM 84.2 °F 92.3 °F 75.2 °F 74% 29.68 in 6.2 mi South 6.9 mph - N/A   Scattered Clouds
6:50 PM 82.4 °F 89.5 °F 75.2 °F 79% 29.68 in 6.2 mi SSE 4.6 mph - N/A   Scattered Clouds
7:20 PM 82.4 °F 89.5 °F 75.2 °F 79% 29.71 in 6.2 mi South 5.8 mph - N/A   Scattered Clouds
7:50 PM 82.4 °F 89.5 °F 75.2 °F 79% 29.71 in 6.2 mi South 3.5 mph - N/A   Scattered Clouds
8:20 PM 80.6 °F 86.2 °F 75.2 °F 84% 29.71 in 6.2 mi SSE 3.5 mph - N/A   Partly Cloudy
8:50 PM 80.6 °F 86.2 °F 75.2 °F 84% 29.71 in 6.2 mi South 3.5 mph - N/A   Partly Cloudy
9:00 PM 81 °F - 75 °F 76% 29.69 in 6 mi South 6.7 mph - -   Scattered Clouds
9:20 PM 82.4 °F 89.5 °F 75.2 °F 79% 29.71 in - SW 4.6 mph - N/A   Clear
9:50 PM 80.6 °F 86.2 °F 75.2 °F 84% 29.71 in - WSW 3.5 mph - N/A   Clear
10:20 PM 80.6 °F 86.2 °F 75.2 °F 84% 29.71 in - SW 3.5 mph - N/A   Clear
10:50 PM 80.6 °F 86.2 °F 75.2 °F 84% 29.71 in - Variable 2.3 mph - N/A   Clear
11:20 PM 78.8 °F - 73.4 °F 83% 29.71 in - Variable 2.3 mph - N/A   Clear
11:50 PM 80.6 °F 86.2 °F 75.2 °F 84% 29.68 in - Variable 4.6 mph - N/A   Clear